TimeCST,TemperatureF,Dew PointF,Humidity,Sea Level PressureIn,VisibilityMPH,Wind Direction,Wind SpeedMPH,Gust SpeedMPH,PrecipitationIn,Events,Conditions,WindDirDegrees,DateUTC
12:15 AM,48.2,44.6,87,29.90,10.0,Calm,Calm,-,N/A,,Clear,0,2012-12-07 06:15:00
12:35 AM,48.2,44.6,87,29.90,10.0,Calm,Calm,-,N/A,,Clear,0,2012-12-07 06:35:00
12:55 AM,48.2,44.6,87,29.89,10.0,Calm,Calm,-,N/A,,Clear,0,2012-12-07 06:55:00
1:15 AM,46.4,44.6,93,29.88,10.0,Calm,Calm,-,N/A,,Clear,0,2012-12-07 07:15:00
1:35 AM,46.4,44.6,93,29.88,10.0,Calm,Calm,-,N/A,,Clear,0,2012-12-07 07:35:00
1:55 AM,46.4,44.6,93,29.88,10.0,Calm,Calm,-,N/A,,Clear,0,2012-12-07 07:55:00
2:15 AM,44.6,42.8,93,29.88,10.0,Calm,Calm,-,N/A,,Clear,0,2012-12-07 08:15:00
2:35 AM,44.6,42.8,93,29.88,10.0,Calm,Calm,-,N/A,,Clear,0,2012-12-07 08:35:00
2:55 AM,44.6,42.8,93,29.88,10.0,Calm,Calm,-,N/A,,Clear,0,2012-12-07 08:55:00
3:15 AM,44.6,41.0,87,29.88,10.0,Calm,Calm,-,N/A,,Clear,0,2012-12-07 09:15:00
3:35 AM,44.6,42.8,93,29.88,10.0,Calm,Calm,-,N/A,,Clear,0,2012-12-07 09:35:00
3:55 AM,44.6,42.8,93,29.88,10.0,Calm,Calm,-,N/A,,Clear,0,2012-12-07 09:55:00
4:15 AM,46.4,44.6,93,29.88,10.0,NNW,3.5,-,N/A,,Clear,340,2012-12-07 10:15:00
4:35 AM,46.4,44.6,93,29.88,10.0,Calm,Calm,-,N/A,,Clear,0,2012-12-07 10:35:00
4:55 AM,46.4,44.6,93,29.88,10.0,Calm,Calm,-,N/A,,Clear,0,2012-12-07 10:55:00
5:15 AM,46.4,44.6,93,29.89,10.0,North,5.8,-,N/A,,Clear,360,2012-12-07 11:15:00
5:35 AM,46.4,44.6,93,29.88,10.0,Calm,Calm,-,N/A,,Clear,0,2012-12-07 11:35:00
5:55 AM,44.6,42.8,93,29.89,10.0,Calm,Calm,-,N/A,,Mostly Cloudy,0,2012-12-07 11:55:00
6:15 AM,46.4,44.6,93,29.89,10.0,Calm,Calm,-,N/A,,Overcast,0,2012-12-07 12:15:00
6:35 AM,46.4,44.6,93,29.89,10.0,North,3.5,-,N/A,,Overcast,360,2012-12-07 12:35:00
6:55 AM,48.2,46.4,93,29.90,10.0,Calm,Calm,-,N/A,,Overcast,0,2012-12-07 12:55:00
7:15 AM,50.0,48.2,94,29.91,10.0,Calm,Calm,-,N/A,,Overcast,0,2012-12-07 13:15:00
7:35 AM,51.8,48.2,88,29.91,10.0,Calm,Calm,-,N/A,,Overcast,0,2012-12-07 13:35:00
7:55 AM,53.6,48.2,82,29.92,9.0,Calm,Calm,-,N/A,,Overcast,0,2012-12-07 13:55:00
8:15 AM,53.6,51.8,94,29.92,10.0,Calm,Calm,-,N/A,,Overcast,0,2012-12-07 14:15:00
8:35 AM,55.4,51.8,88,29.93,10.0,Calm,Calm,-,N/A,,Overcast,0,2012-12-07 14:35:00
8:55 AM,55.4,51.8,88,29.94,9.0,Calm,Calm,-,N/A,,Overcast,0,2012-12-07 14:55:00
9:15 AM,57.2,51.8,82,29.95,10.0,Calm,Calm,-,N/A,,Overcast,0,2012-12-07 15:15:00
9:35 AM,57.2,51.8,82,29.95,10.0,Calm,Calm,-,N/A,,Overcast,0,2012-12-07 15:35:00
9:55 AM,60.8,53.6,77,29.95,10.0,Calm,Calm,-,N/A,,Overcast,0,2012-12-07 15:55:00
10:15 AM,60.8,55.4,82,29.95,10.0,Calm,Calm,-,N/A,,Overcast,0,2012-12-07 16:15:00
10:35 AM,62.6,55.4,77,29.95,10.0,Calm,Calm,-,N/A,,Overcast,0,2012-12-07 16:35:00
10:55 AM,62.6,57.2,82,29.94,10.0,Calm,Calm,-,N/A,,Overcast,0,2012-12-07 16:55:00
11:15 AM,62.6,57.2,82,29.94,10.0,Calm,Calm,-,N/A,,Overcast,0,2012-12-07 17:15:00
11:35 AM,62.6,57.2,82,29.93,10.0,WSW,3.5,-,N/A,,Overcast,250,2012-12-07 17:35:00
11:55 AM,64.4,57.2,77,29.92,10.0,South,3.5,-,N/A,,Overcast,170,2012-12-07 17:55:00
12:15 PM,64.4,57.2,77,29.90,10.0,Calm,Calm,-,N/A,,Overcast,0,2012-12-07 18:15:00
12:35 PM,64.4,57.2,77,29.89,10.0,ESE,3.5,-,N/A,,Overcast,120,2012-12-07 18:35:00
12:55 PM,66.2,57.2,73,29.88,10.0,Calm,Calm,-,N/A,,Mostly Cloudy,0,2012-12-07 18:55:00
1:15 PM,66.2,57.2,73,29.87,10.0,Calm,Calm,-,N/A,,Mostly Cloudy,0,2012-12-07 19:15:00
1:35 PM,69.8,59.0,68,29.86,10.0,East,5.8,-,N/A,,Mostly Cloudy,100,2012-12-07 19:35:00
1:55 PM,71.6,59.0,64,29.85,10.0,NE,4.6,-,N/A,,Partly Cloudy,50,2012-12-07 19:55:00
2:15 PM,71.6,59.0,64,29.84,10.0,ENE,3.5,-,N/A,,Scattered Clouds,70,2012-12-07 20:15:00
2:35 PM,71.6,60.8,69,29.83,10.0,North,4.6,-,N/A,,Partly Cloudy,360,2012-12-07 20:35:00
2:55 PM,73.4,60.8,65,29.83,10.0,Calm,Calm,-,N/A,,Clear,0,2012-12-07 20:55:00
3:15 PM,73.4,60.8,65,29.83,10.0,Calm,Calm,-,N/A,,Clear,0,2012-12-07 21:15:00
3:35 PM,73.4,60.8,65,29.83,10.0,Calm,Calm,-,N/A,,Clear,0,2012-12-07 21:35:00
3:55 PM,75.2,60.8,61,29.83,10.0,Calm,Calm,-,N/A,,Clear,0,2012-12-07 21:55:00
4:15 PM,75.2,60.8,61,29.82,10.0,Calm,Calm,-,N/A,,Clear,0,2012-12-07 22:15:00
4:35 PM,73.4,59.0,61,29.82,10.0,South,8.1,-,N/A,,Clear,190,2012-12-07 22:35:00
4:55 PM,73.4,59.0,61,29.83,10.0,SSE,6.9,-,N/A,,Clear,160,2012-12-07 22:55:00
5:15 PM,71.6,59.0,64,29.83,10.0,South,6.9,-,N/A,,Clear,170,2012-12-07 23:15:00
5:35 PM,69.8,59.0,68,29.83,10.0,SSE,4.6,-,N/A,,Clear,160,2012-12-07 23:35:00
5:55 PM,68.0,57.2,68,29.83,10.0,SSE,4.6,-,N/A,,Clear,150,2012-12-07 23:55:00
6:15 PM,66.2,57.2,73,29.83,10.0,SSE,3.5,-,N/A,,Clear,150,2012-12-08 00:15:00
6:35 PM,64.4,57.2,77,29.84,10.0,Calm,Calm,-,N/A,,Clear,0,2012-12-08 00:35:00
7:15 PM,62.6,57.2,82,29.85,10.0,Calm,Calm,-,N/A,,Clear,0,2012-12-08 01:15:00
7:35 PM,59.0,55.4,88,29.86,10.0,Calm,Calm,-,N/A,,Clear,0,2012-12-08 01:35:00
7:55 PM,57.2,55.4,94,29.87,10.0,Calm,Calm,-,N/A,,Clear,0,2012-12-08 01:55:00
8:15 PM,55.4,53.6,94,29.87,10.0,North,4.6,-,N/A,,Clear,350,2012-12-08 02:15:00
8:35 PM,55.4,53.6,94,29.88,10.0,North,4.6,-,N/A,,Clear,350,2012-12-08 02:35:00
8:55 PM,57.2,55.4,94,29.88,10.0,Calm,Calm,-,N/A,,Clear,0,2012-12-08 02:55:00
9:15 PM,55.4,53.6,94,29.89,9.0,Calm,Calm,-,N/A,,Clear,0,2012-12-08 03:15:00
9:35 PM,55.4,53.6,94,29.89,9.0,Calm,Calm,-,N/A,,Clear,0,2012-12-08 03:35:00
9:55 PM,53.6,51.8,94,29.89,7.0,Calm,Calm,-,N/A,,Clear,0,2012-12-08 03:55:00
10:15 PM,53.6,51.8,94,29.89,10.0,Calm,Calm,-,N/A,,Clear,0,2012-12-08 04:15:00
10:35 PM,53.6,51.8,94,29.89,7.0,Calm,Calm,-,N/A,,Clear,0,2012-12-08 04:35:00
10:55 PM,53.6,51.8,94,29.90,6.0,Calm,Calm,-,N/A,,Clear,0,2012-12-08 04:55:00
11:15 PM,55.4,53.6,94,29.89,6.0,Calm,Calm,-,N/A,,Clear,0,2012-12-08 05:15:00
11:35 PM,53.6,53.6,100,29.89,5.0,Calm,Calm,-,N/A,,Clear,0,2012-12-08 05:35:00
11:55 PM,53.6,51.8,94,29.89,3.0,Calm,Calm,-,N/A,,Clear,0,2012-12-08 05:55:00